Japanese version Home page |
Updated on December 7, 2004 |
Profile
|
Orbital ElementsT 2004 May 24.4862 TT MPC q 2.141553 (2000.0) P Q n 0.1311475 Peri. 5.2954 +0.8094830 +0.5799942 a 3.836742 Node 318.8074 -0.5436572 +0.6816451 e 0.441830 Incl. 7.9725 -0.2217524 +0.4460568 P 7.52 >From 137 observations 2004 Sept. 10-Nov. 10.
|
Finding Charts
|
Magnitudes Graphm1 = 14.0 + 5 log d + 10.0 log r
|
The orbital elements are published on M.P.E.C. 2004-V73.
|